Regional Weather Roundup
Issued by NWS

Home | Current Version | Previous Version | Text Only | Print | Product List | Glossary Off
Versions: 1 2 3 4 5 6 7 8 9 10 11 12 13 14 15 16 17 18 19 20 21 22 23 24 25 26 27 28 29 30 31 32 33 34 35 36 37 38 39 40 41 42 43 44 45 46 47 48 49 50

230
ASUS43 KMKX 222211
RWRWI

WISCONSIN REGIONAL WEATHER ROUNDUP
NATIONAL WEATHER SERVICE MILWAUKEE/SULLIVAN WI
400 PM CST THU FEB 22 2018

NOTE: "FAIR" INDICATES FEW OR NO CLOUDS BELOW 12,000 FEET WITH NO
SIGNIFICANT WEATHER AND/OR OBSTRUCTIONS TO VISIBILITY.

WIZ001-002-006>008-014>016-023>028-222300-
NORTHWEST WISCONSIN

CITY           SKY/WX    TMP DP  RH WIND       PRES   REMARKS
SUPERIOR ARPT  CLOUDY    21  12  67 E6        30.48F WCI  14
ASHLAND        CLOUDY    21  13  71 N7        30.48F WCI  12
HAYWARD        CLOUDY    31   8  38 SE5       30.44F WCI  26
SIREN          CLOUDY    29   4  34 SE5       30.45S WCI  24
CUMBERLAND     CLOUDY    28   9  43 E5        30.44S WCI  23
RICE LAKE      CLOUDY    30   7  37 E7        30.46S WCI  23
CHETEK         CLOUDY    30   8  39 E6        30.45S WCI  24
LADYSMITH      CLOUDY    31  10  41 E3        30.47S
EAU CLAIRE     CLOUDY    30  12  47 E12       30.45S WCI  20
MENOMONIE      CLOUDY    31  13  48 E8        30.45S WCI  23
NEW RICHMOND   CLOUDY    28   9  44 E8        30.43S WCI  20
OSCEOLA        CLOUDY    30   8  40 E9        30.46F WCI  21
$$

WIZ003>005-009-010-017-018-222300-
NORTH CENTRAL WISCONSIN

CITY           SKY/WX    TMP DP  RH WIND       PRES   REMARKS
MANITOWISH WTR PTSUNNY   30   8  39 S7        30.44S WCI  23
ARBOR VITAE    CLOUDY    34  12  40 S8        30.44S WCI  27
WOODRUFF       CLOUDY    34  12  40 S8        30.44S WCI  27
RHINELANDER    CLOUDY    30  13  49 E10       30.45F WCI  21
EAGLE RIVER    FAIR      32   7  35 S6        30.44S WCI  26
LAND O LAKES   CLOUDY    32   8  36 SE8       30.45F WCI  24
PHILLIPS       CLOUDY    31  10  40 SE7       30.44F WCI  24
TOMAHAWK       CLOUDY    30   8  39 SE5       30.46F WCI  25
MEDFORD        FAIR      28  11  48 E7        30.45S WCI  21
MERRILL        CLOUDY    30  13  48 SE6       30.47F WCI  24
$$

WIZ029-030-035-036-043>047-222300-
CENTRAL WISCONSIN

CITY           SKY/WX    TMP DP  RH WIND       PRES   REMARKS
WAUSAU         CLOUDY    29  13  51 E10       30.45F WCI  20
MOSINEE        CLOUDY    28  14  54 E8        30.48F WCI  20
MARSHFIELD     CLOUDY    29  15  56 E10       30.45R WCI  20
STEVENS POINT  CLOUDY    28  17  66 E7        30.50R WCI  20
WAUPACA        CLOUDY    32  21  62 E6        30.52R WCI  27
WAUTOMA        CLOUDY    31  22  69 NE8       30.50R WCI  23
WISC RAPIDS    CLOUDY    30  16  56 SE8       30.51R WCI  22
CAMP DOUGLAS   CLOUDY    32  18  55 E10       30.47R WCI  24
$$

WIZ011>013-019>022-031-037>040-048>050-222300-
NORTHEAST WISCONSIN

CITY           SKY/WX    TMP DP  RH WIND       PRES   REMARKS
ANTIGO         FAIR      27  15  59 SE10      30.48S WCI  18
SHAWANO        CLOUDY    32  21  64 E8        30.51F WCI  25
OCONTO         CLOUDY    30  20  67 NE8       30.54F WCI  22
STURGEON BAY   CLOUDY    30  22  72 E8        30.53F WCI  22
GREEN BAY      CLOUDY    31  21  66 NE10      30.53S WCI  22
MANITOWOC      CLOUDY    32  24  72 NE6       30.53R WCI  26
APPLETON       CLOUDY    30  18  59 E9        30.49S WCI  22
CLINTONVILLE   CLOUDY    31  18  57 E7        30.52R WCI  24
OSHKOSH        CLOUDY    32  21  64 E9        30.49S WCI  24
$$

WIZ032>034-041-042-053>061-222300-
SOUTHWEST WISCONSIN

CITY           SKY/WX    TMP DP  RH WIND       PRES   REMARKS
LA CROSSE      CLOUDY    33  19  56 NE6       30.44S WCI  28
SPARTA         CLOUDY    32  19  58 E9        30.47R WCI  24
VIROQUA        CLOUDY    31  19  62 E13       30.41F WCI  21
BOSCOBEL       CLOUDY    34  22  61 E9G17     30.42F WCI  27
PRAIRIE DU CHI CLOUDY    33  20  59 NE10      30.40F WCI  25
PLATTEVILLE    CLOUDY    33  29  85 E10       30.39S WCI  25
$$

WIZ056-057-062-063-064-067-068-222300-
SOUTH CENTRAL WISCONSIN

CITY           SKY/WX    TMP DP  RH WIND       PRES   REMARKS
REEDSBURG      CLOUDY    32  22  67 NE7       30.45F WCI  26
BARABOO/DELLS  CLOUDY    32  21  64 E10       30.44F WCI  24
LONE ROCK      CLOUDY    33  25  72 NE9       30.43F WCI  25
MINERAL POINT  CLOUDY    34  28  80 E14       30.37F WCI  24
MADISON        CLOUDY    34  25  69 NE13      30.44F WCI  25
MIDDLETON      CLOUDY    35  27  71 E13       30.42F WCI  26
WATERTOWN      CLOUDY    33  25  73 E10       30.46R WCI  25
MONROE         MIX PCPN  32  30  93 NE9       30.39F WCI  24
JANESVILLE     DRIZZLE   36  30  80 E13       30.42R WCI  27
$$

WIZ051-052-058>065-066-070>072-222300-
SOUTHEAST WISCONSIN

CITY           SKY/WX    TMP DP  RH WIND       PRES   REMARKS
MILWAUKEE      CLOUDY    35  29  78 NE12      30.47F WCI  27
WAUKESHA       CLOUDY    30  27  86 E12       30.47S WCI  21
MILWAUKEE/TIMM CLOUDY    32  25  74 NE10      30.48F WCI  24
RACINE         CLOUDY    36  29  75 E12       30.47F WCI  28
BURLINGTON     CLOUDY    33  28  80 E9G18     30.45R WCI  26
KENOSHA        CLOUDY    36  28  73 E14G24    30.44F WCI  27
FOND DU LAC    CLOUDY    34  22  61 E8        30.50R WCI  27
SHEBOYGAN      CLOUDY    32  26  78 E10       30.50F WCI  24
WEST BEND      CLOUDY    32  28  86 E10       30.49R WCI  24
JUNEAU         CLOUDY    32  24  72 NE7       30.49R WCI  26
$$

LSZ147-162-222300-
LAKE SUPERIOR

STATION/POSITION TIME  TEMP    WIND        PRES    WAVE
                       AIR SEA DIR/SP/G            HT/PER
                 (UTC) (F)     (DEG/KT/KT) (MB)    (FT/S)
DEVILS ISLAND    2200   23     100/  6/  7 1033.8F
SAXON HARBOR     2130   23      40/  7/  8 1031.8F
$$

LMZ867-665-643>646-222300-
LAKE MICHIGAN

STATION/POSITION TIME  TEMP    WIND        PRES    WAVE
                       AIR SEA DIR/SP/G            HT/PER
                 (UTC) (F)     (DEG/KT/KT) (MB)    (FT/S)
NORTHPORT PIER   2140   29                 1034.2F
KEWAUNEE LAKESHO 2148   31      60/  7/ 13 1032.4F
SHEBOYGAN LAKESH 2200   32      60/ 13/ 14 1033.8F
PORT WASHINGTON  2140   33      60/ 10/ 15 1033.5F
MILWAUKEE LAKESH 2150   33      50/ 11/ 12   N/A
KENOSHA   LAKESH 2200   34      70/  7/  9 1031.2
$$

TC  - TEMPERATURE IN CELSIUS
VSB - VISIBILITY IN STATUTE MILES
WCI - WIND CHILL INDEX
HX  - HEAT INDEX





USA.gov is the U.S. government's official web portal to all federal, state and local government web resources and services.